Location: ActonStarParty
(42.4766°N, 71.4538°W)
Time: 18:51:10
(UTC-04:00)

Daily predictions for brighter satellites

Satellite Brightness Start Highest point End
(mag) Time Altitude Azimuth Time Altitude Azimuth Time Altitude Azimuth
BREEZE-M DEB (TANK) 3.8 19:47:07 10° SW 19:51:05 59° SE 20:05:27 10° ENE
Cosmos 2154 Rocket 4.3 19:58:33 10° SSE 20:04:29 46° E 20:10:24 10° NNE
Thor Agena Rocket 3.8 19:59:30 10° NNE 20:04:37 51° E 20:09:43 10° S
Cosmos 1437 2.6 20:01:52 10° S 20:05:02 79° E 20:08:15 10° NNE
Cosmos 44 Rocket 3.2 20:02:16 10° SSW 20:06:59 74° ESE 20:11:52 10° NE
Cosmos 2184 Rocket 4.0 20:02:00 10° S 20:08:09 87° E 20:14:21 10° N
Cosmos 2221 2.9 20:04:13 10° SSW 20:08:28 71° W 20:12:43 10° N
Cosmos 1346 Rocket 3.7 20:06:23 10° SSW 20:10:22 56° WNW 20:14:26 10° N
Cosmos 1300 3.4 20:10:35 10° SSW 20:14:21 60° W 20:18:09 10° N
Cosmos 2360 Rocket 2.9 20:10:38 10° SW 20:16:11 60° WNW 20:21:46 10° NNE
Cosmos 1805 Rocket 3.5 20:12:57 10° N 20:17:20 84° E 20:21:40 10° S
NOSS 2-1 (C) 3.1 20:15:18 10° SSW 20:18:50 59° ESE 20:22:42 10° NE
NOSS 2-1 (D) 3.1 20:16:15 10° SSW 20:19:48 62° ESE 20:23:42 10° NE
OE (NEXTSAT) 4.4 20:16:23 10° WSW 20:19:55 67° SSE 20:23:27 10° ENE
Resurs 01 Rocket 1.8 20:16:18 10° SSE 20:20:38 54° ENE 20:24:59 10° N
Cosmos 2333 Rocket 2.7 20:16:58 10° S 20:22:09 38° ESE 20:27:19 10° NE
ATLAS 2AS CENTAUR R/B 3.4 20:16:39 10° NNW 20:24:25 51° NE 20:30:50 13° ESE
Cosmos 2341 Rocket 4.4 20:18:39 10° SSE 20:24:39 45° E 20:30:37 10° NNE
Cosmos 1328 Rocket 4.2 20:21:20 10° SSE 20:25:19 34° E 20:29:20 10° NNE
CZ-2D R/B 4.1 20:23:00 10° S 20:26:42 50° W 20:30:25 10° NNW
COSMOS 2428 2.7 20:21:36 10° SSW 20:27:17 72° ESE 20:33:00 10° NNE
Meteor 2-15 4.4 20:21:59 10° N 20:28:10 82° E 20:34:16 10° S
Spot 2 Rocket 3.7 20:24:08 10° SSE 20:29:05 53° ENE 20:34:03 10° N
Cosmos 2333 4.1 20:24:58 10° SSW 20:30:37 79° ESE 20:36:16 10° NNE
Cosmos 1470 Rocket 4.3 20:30:50 10° N 20:34:50 33° ENE 20:37:40 17° SE
Cosmos 1844 Rocket 2.7 20:29:25 10° NNW 20:35:08 88° WSW 20:40:48 10° SSE
Cosmos 1844 3.7 20:29:32 10° NNW 20:35:14 73° ENE 20:40:35 12° SSE
Meteor 2-21 4.4 20:30:55 10° S 20:37:02 84° E 20:43:16 10° N
SJ-11-01 4.2 20:33:32 10° SSE 20:38:09 70° ENE 20:42:49 10° N
Cosmos 1455 2.3 20:34:58 10° S 20:38:39 50° E 20:42:24 10° NNE
Cosmos 1892 2.7 20:39:45 10° N 20:43:41 90° WSW 20:47:33 10° S
Cosmos 2237 Rocket 2.8 20:39:08 10° SSE 20:44:04 33° ESE 20:49:02 10° NE
Cosmos 2219 Rocket 2.1 20:39:23 10° SSW 20:45:01 69° ESE 20:50:38 10° NNE
ERS-2 3.5 20:41:38 10° S 20:45:04 38° W 20:48:32 10° NNW
Lacrosse 5 4.4 20:45:09 10° NW 20:48:09 15° N 20:51:10 10° NE
BREEZE-M DEB (TANK) 2.3 20:44:01 10° WNW 20:48:33 72° NNE 20:49:38 30° ESE
Cosmos 1408 3.4 20:46:24 10° NNE 20:49:42 31° ENE 20:50:51 26° ESE
NOSS 2-1 (E) 3.5 20:46:32 10° SW 20:50:09 71° NW 20:54:16 10° NNE
NOSS 0 Rocket 4.1 20:45:44 10° S 20:51:37 49° ESE 20:57:33 10° NE
Cosmos 2278 Rocket 2.7 20:46:46 10° NNW 20:52:13 45° ENE 20:55:31 22° ESE
ATLAS CENTAUR R/B 1.3 20:48:54 10° S 20:52:22 44° ESE 20:56:00 10° NE
SL-8 Rocket 4.1 20:51:20 10° SSE 20:57:25 53° E 21:03:30 10° NNE
Cosmos 1666 Rocket 4.2 20:53:14 10° NNW 20:57:39 58° W 21:02:00 10° S
USA 186 3.6 20:56:09 10° SSW 20:57:52 19° W 20:59:38 10° NW
NOAA 11 4.2 20:53:29 12° SSE 20:58:36 83° ENE 21:04:08 10° NNW
Resurs 1-3 4.2 20:54:48 10° S 20:59:06 56° W 21:03:26 10° NNW
Genesis I 3.6 20:55:17 10° NNW 20:59:18 53° NE 21:01:00 30° ESE
H-2A R/B 2.8 20:58:30 23° ESE 21:00:36 33° ENE 21:05:01 10° N
NOSS 3-3 (A) 3.9 20:55:56 10° SSW 21:01:57 85° SE 21:08:35 10° NE
NOSS 3-3 (C) 3.9 20:56:02 10° SSW 21:02:03 84° ESE 21:08:42 10° NE
OAO 2 Rocket 4.4 20:58:27 10° WSW 21:03:00 31° S 21:04:58 24° SSE
Cosmos 1933 Rocket 3.6 20:59:24 10° N 21:03:44 56° E 21:05:47 29° SE
YAOGAN 6 4.3 21:03:05 10° SSW 21:06:19 31° W 21:09:36 10° NNW
USA 267 3.7 21:04:46 10° ENE 21:10:38 34° SE 21:16:27 10° S
ERS-1 Rocket 3.6 21:10:18 29° ESE 21:12:02 38° ENE 21:16:39 10° N
Cosmos 1371 Rocket 4.5 21:09:58 25° SSE 21:12:24 39° ESE 21:17:22 10° NE
Cosmos 1151 Rocket 2.8 21:13:26 16° S 21:16:47 83° E 21:21:04 10° N
Cosmos 220 Rocket 4.1 21:12:47 10° NNW 21:17:08 74° WSW 21:19:12 30° S
Cosmos 1825 2.0 21:23:51 10° N 21:27:40 86° E 21:28:24 57° SSE
Meteor 2-3 Rocket 4.4 21:24:10 10° NNW 21:29:34 51° W 21:34:38 12° SSW
Cosmos 864 Rocket 4.4 21:25:49 22° S 21:29:53 68° E 21:35:59 10° NNE
Cosmos 2098 Rocket 3.0 21:31:01 40° SSE 21:32:34 67° E 21:36:34 10° NNE
SL-16 R/B 2.9 21:33:18 32° E 21:33:18 32° E 21:37:41 10° NE
Cosmos 2056 Rocket 3.7 21:32:53 41° SE 21:34:07 49° ESE 21:39:19 10° NNE
Cosmos 1869 3.2 21:34:42 57° S 21:35:28 82° E 21:39:30 10° N
Cosmos 2228 Rocket 3.6 21:32:02 11° SSW 21:36:09 57° W 21:40:29 10° N
Helios 1B rocket 4.1 21:36:17 10° NE 21:38:01 20° NE 21:38:01 20° NE
SL-8 R/B 3.6 21:36:01 10° SW 21:40:45 66° SSE 21:41:35 55° E
Cosmos 1515 Rocket 4.4 21:37:20 10° SSW 21:41:40 50° WNW 21:46:02 10° N
USA 234 4.5 21:40:32 16° ENE 21:45:01 34° NNE 21:50:45 10° NW
Cosmos 405 3.8 21:42:11 10° N 21:44:48 43° NNE 21:44:48 43° NNE
ARGOS 3.2 21:44:34 37° S 21:46:46 75° WSW 21:52:08 10° NNW
GEOS 3 Rocket 3.5 21:44:03 10° NE 21:49:26 77° SE 21:54:41 10° SSW
Helios 1A 3.1 21:49:42 60° ENE 21:49:42 60° ENE 21:53:42 10° N
Cosmos 1624 Rocket 3.8 21:50:09 49° S 21:51:29 74° ESE 21:56:41 10° NNE
BREEZE-M DEB (TANK) 4.0 21:49:30 10° WNW 21:51:02 27° WNW 21:51:02 27° WNW
SL-08 RB Rocket 3.6 21:52:57 62° SSW 21:53:38 78° WSW 21:58:08 10° NNW
MetOp-B 4.2 21:51:53 42° S 21:53:43 74° WSW 21:59:06 10° NNW
Cosmos 1190 Rocket 3.9 21:50:27 10° NNW 21:55:45 70° ENE 21:56:23 62° ESE
Resurs 01 Rocket 4.3 21:54:58 10° SW 21:57:26 15° W 21:59:55 10° WNW
Cosmos 1980 4.3 21:54:20 10° SW 21:59:55 57° WNW 22:05:32 10° NNE
Cosmos 2297 3.7 21:56:36 10° NNW 22:02:16 64° ENE 22:02:58 58° E
Cosmos 1727 Rocket 3.9 21:56:42 10° N 22:02:54 82° W 22:04:57 45° S
Landsat 7 4.2 22:03:40 50° ENE 22:03:40 50° ENE 22:07:58 10° N
BREEZE-M DEB (TANK) 3.8 22:00:46 10° WNW 22:04:49 25° N 22:05:12 24° N
Cosmos 2333 Rocket 3.8 22:01:21 10° WSW 22:06:25 33° NW 22:11:32 10° N
Cosmos 1140 Rocket 4.0 22:01:34 10° N 22:06:25 43° ENE 22:06:25 43° ENE
Cosmos 1821 Rocket 4.2 22:08:27 50° E 22:08:37 50° E 22:14:41 10° NNE
Cosmos 1954 Rocket 4.4 22:04:34 10° N 22:09:29 47° ENE 22:09:29 47° ENE
Cosmos 2369 Rocket 3.9 22:08:39 10° N 22:12:39 19° NE 22:13:27 19° ENE
Meteor 2-10 Rocket 4.0 22:11:14 31° SSW 22:13:57 65° WNW 22:19:46 10° N
ATLAS 2AS CENTAUR R/B 3.8 22:08:06 10° NW 22:15:16 41° WSW 22:18:17 29° SSW
DMSP B5D2-2 3.9 22:12:35 10° NNE 22:17:52 87° ESE 22:18:05 83° S
Cosmos 1862 4.1 22:15:15 10° NNW 22:18:24 50° NNW 22:18:24 50° NNW
Spot 1 4.4 22:20:20 71° NNE 22:20:20 71° NNE 22:24:47 10° N
Terra 2.5 22:21:54 45° NE 22:21:54 45° NE 22:25:41 10° N
Cosmos 2237 Rocket 3.5 22:22:51 10° SW 22:28:02 37° WNW 22:33:15 10° N
SPOT 5 3.2 22:30:51 58° WNW 22:30:51 58° WNW 22:34:52 10° NNW
SPOT 1/Viking Rocket 3.6 22:31:21 70° WSW 22:31:21 70° WSW 22:36:36 10° NNW
ATLAS CENTAUR R/B 3.9 22:28:55 10° W 22:31:34 18° NW 22:34:19 10° N
Lacrosse 5 3.7 22:28:51 10° NNW 22:32:48 22° NNE 22:34:13 20° NE
Cosmos 2278 Rocket 3.7 22:31:20 10° NW 22:36:02 27° WSW 22:37:23 25° SW
CZ-2C R/B 4.3 22:32:56 10° NNE 22:35:16 22° NE 22:35:16 22° NE
CZ-4C R/B 4.2 22:41:44 17° NE 22:41:44 17° NE 22:43:08 10° NE
Cosmos 1535 Rocket 4.5 22:39:34 71° ENE 22:39:34 71° ENE 22:45:41 10° NNE
H-2A R/B 3.4 22:39:07 28° WSW 22:40:00 30° W 22:44:24 10° NW
NOSS 3-4 (A) 3.8 22:38:50 10° NW 22:45:54 73° WSW 22:46:43 67° SSW
NOSS 3-4 (C) 3.8 22:38:57 10° NW 22:46:00 74° WSW 22:46:49 67° SSW
Cosmos 407 Rocket 4.4 22:43:32 10° NW 22:48:01 40° W 22:48:01 40° W
ATLAS 5 CENTAUR R/B 3.7 22:43:45 10° NNW 22:48:43 28° NE 22:49:39 27° NE
USA 267 3.4 22:47:24 10° NE 22:53:55 71° NW 23:00:25 10° WSW
Cosmos 1605 Rocket 4.4 22:59:49 52° NE 22:59:49 52° NE 23:04:57 10° NNE
Cosmos 2344 3.6 23:10:53 47° SW 23:13:23 80° NW 23:21:53 10° NE
SL-16 R/B 3.4 23:15:04 31° W 23:16:41 37° WNW 23:21:56 10° N
Cosmos 1452 Rocket 4.5 23:18:16 45° NNW 23:18:16 45° NNW 23:22:21 10° N
USA 234 3.3 23:27:52 77° N 23:27:52 77° N 23:34:02 10° NW
Cosmos 1943 Rocket 3.2 23:28:17 10° NNW 23:32:07 39° NNE 23:32:07 39° NNE
Mayak 1.7 23:37:54 10° NNE 23:37:59 10° NNE 23:37:59 10° NNE
SeaSat 1 4.1 23:55:37 30° N 23:55:37 30° N 23:58:24 10° NNW
